2023/07/28 00:00:00, 8.3,23.8
2023/07/28 00:10:00, 1.2,23.8
2023/07/28 00:20:00, 0.4,23.7
2023/07/28 00:30:00, 0.3,23.3
2023/07/28 00:40:00, 0.2,23.5
2023/07/28 00:50:00, 0.2,23.3
2023/07/28 01:00:00, 0.2,23.5
2023/07/28 01:10:00, 0.3,23.3
2023/07/28 01:20:00, 0.3,23.4
2023/07/28 01:30:00, 0.3,23.4
2023/07/28 01:40:00, 0.3,23.3
2023/07/28 01:50:00, 0.4,23.2
2023/07/28 02:00:00, 4.7,23.3
2023/07/28 02:10:00, 9.8,23.5
2023/07/28 02:20:00, 8.2,23.0
2023/07/28 02:30:00, 3.3,23.1
2023/07/28 02:40:00, 7.1,23.0
2023/07/28 02:50:00, 7.1,23.0
2023/07/28 03:00:00, 5.0,23.0
2023/07/28 03:10:00, 3.4,22.9
2023/07/28 03:20:00, 2.6,22.9
2023/07/28 03:30:00, 2.0,22.9
2023/07/28 03:40:00, 2.4,22.9
2023/07/28 03:50:00, 4.9,22.8
2023/07/28 04:00:00, 9.2,23.0
2023/07/28 04:10:00, 8.6,22.9
2023/07/28 04:20:00, 8.4,22.6
2023/07/28 04:30:00, 9.2,22.5
2023/07/28 04:40:00, 9.4,22.7
2023/07/28 04:50:00, 9.6,22.6
2023/07/28 05:00:00, 9.8,22.6
2023/07/28 05:10:00, 9.8,22.4
2023/07/28 05:20:00, 9.8,22.5
2023/07/28 05:30:00, 9.9,22.8
2023/07/28 05:40:00, 9.8,23.1
2023/07/28 05:50:00, 9.7,23.0
2023/07/28 06:00:00, 9.8,23.4
2023/07/28 06:10:00, 9.9,24.0
2023/07/28 06:20:00,10.0,24.1
2023/07/28 06:30:00, 9.9,24.6
2023/07/28 06:40:00,13.8,25.3
2023/07/28 06:50:00, 7.6,25.7
2023/07/28 07:00:00, 1.4,26.4
2023/07/28 07:10:00, 0.5,26.9
2023/07/28 07:20:00, 0.5,27.5
2023/07/28 07:30:00, 0.7,28.1
2023/07/28 07:40:00, 2.4,28.5
2023/07/28 07:50:00, 7.6,29.0
2023/07/28 08:00:00,10.2,29.4
2023/07/28 08:10:00,11.2,29.7
2023/07/28 08:20:00,10.5,30.0
2023/07/28 08:30:00,10.1,30.4
2023/07/28 08:40:00, 9.8,30.7
2023/07/28 08:50:00, 9.5,30.8
2023/07/28 09:00:00, 9.5,31.2
2023/07/28 09:10:00, 9.7,31.4
2023/07/28 09:20:00, 9.4,32.4
2023/07/28 09:30:00, 9.4,32.1
2023/07/28 09:40:00, 8.9,32.6
2023/07/28 09:50:00, 9.2,32.8
2023/07/28 10:00:00, 0.6,33.0
2023/07/28 10:10:00, 0.4,33.4
2023/07/28 10:20:00, 0.4,33.4
2023/07/28 10:30:00, 0.4,33.9
2023/07/28 10:40:00, 0.4,33.9
2023/07/28 10:50:00, 0.3,34.6
2023/07/28 11:00:00, 0.3,34.7
2023/07/28 11:10:00, 0.4,34.8
2023/07/28 11:20:00, 0.5,34.9
2023/07/28 11:30:00, 0.4,35.0
2023/07/28 11:40:00, 0.4,35.3
2023/07/28 11:50:00, 0.3,35.3
2023/07/28 12:00:00, 0.4,35.2
2023/07/28 12:10:00, 0.5,35.1
2023/07/28 12:20:00, 0.4,34.8
2023/07/28 12:30:00, 0.5,35.1
2023/07/28 12:40:00, 0.4,34.7
2023/07/28 12:50:00, 0.4,35.3
2023/07/28 13:00:00, 0.4,35.6
2023/07/28 13:10:00, 0.5,35.6
2023/07/28 13:20:00, 0.4,35.8
2023/07/28 13:30:00, 0.4,36.0
2023/07/28 13:40:00, 0.4,36.4
2023/07/28 13:50:00, 0.4,36.2
2023/07/28 14:00:00, 0.4,36.4
2023/07/28 14:10:00, 0.5,36.3
2023/07/28 14:20:00, 0.4,36.4
2023/07/28 14:30:00, 0.5,36.0
2023/07/28 14:40:00, 0.5,35.8
2023/07/28 14:50:00, 0.5,36.1
2023/07/28 15:00:00, 0.5,35.9
2023/07/28 15:10:00, 0.5,35.9
2023/07/28 15:20:00, 0.5,35.6
2023/07/28 15:30:00, 0.6,35.8
2023/07/28 15:40:00, 0.5,35.4
2023/07/28 15:50:00, 0.4,35.3
2023/07/28 16:00:00, 0.4,35.0
2023/07/28 16:10:00, 0.5,35.0
2023/07/28 16:20:00, 0.5,34.7
2023/07/28 16:30:00, 0.4,34.5
2023/07/28 16:40:00, 0.4,34.5
2023/07/28 16:50:00, 0.4,34.2
2023/07/28 17:00:00, 0.4,33.9
2023/07/28 17:10:00, 0.4,33.3
2023/07/28 17:20:00, 0.4,33.2
2023/07/28 17:30:00, 0.4,32.7
2023/07/28 17:40:00, 0.4,31.9
2023/07/28 17:50:00, 0.4,30.4
2023/07/28 18:00:00, 0.4,30.1
2023/07/28 18:10:00, 0.4,29.6
2023/07/28 18:20:00, 0.2,29.4
2023/07/28 18:30:00, 0.2,29.0
2023/07/28 18:40:00, 0.2,28.6
2023/07/28 18:50:00, 0.2,28.3
2023/07/28 19:00:00, 0.2,28.5
2023/07/28 19:10:00, 0.2,28.0
2023/07/28 19:20:00, 0.2,26.7
2023/07/28 19:30:00, 0.1,26.7
2023/07/28 19:40:00, 0.1,26.1
2023/07/28 19:50:00, 0.1,25.5
2023/07/28 20:00:00, 0.1,25.0
2023/07/28 20:10:00, 0.1,24.8
2023/07/28 20:20:00, 0.1,24.9
2023/07/28 20:30:00, 0.1,24.4
2023/07/28 20:40:00, 0.1,24.6
2023/07/28 20:50:00, 0.1,24.1
2023/07/28 21:00:00, 0.1,24.4
2023/07/28 21:10:00, 0.1,24.2
2023/07/28 21:20:00, 0.1,24.2
2023/07/28 21:30:00, 0.1,24.0
2023/07/28 21:40:00, 0.1,24.0
2023/07/28 21:50:00, 0.1,24.0
2023/07/28 22:00:00, 0.1,24.2
2023/07/28 22:10:00, 0.1,24.0
2023/07/28 22:20:00, 0.1,23.7
2023/07/28 22:30:00, 0.1,23.6
2023/07/28 22:40:00, 0.1,23.4
2023/07/28 22:50:00, 0.1,24.1
2023/07/28 23:00:00, 0.1,23.6
2023/07/28 23:10:00, 0.1,23.5
2023/07/28 23:20:00, 0.2,23.1
2023/07/28 23:30:00, 0.2,23.2
2023/07/28 23:40:00, 0.3,23.3
2023/07/28 23:50:00,---,22.9
